Terminal Aerodrome Forecast
Issued by NWS

Home | Current Version | Previous Version | Text Only | Print | Product List | Glossary On
Versions: 1 2 3 4 5 6 7 8 9 10 11 12 13 14 15 16 17 18 19 20 21 22 23 24 25 26 27 28
557
FTUS46 KPDT 151138
TAFRDM
TAF
KRDM 151138Z 1512/1612 15003KT P6SM SCT002 OVC035
     FM151800 19005KT P6SM FEW006 BKN015 OVC060
     FM152100 31007KT P6SM -RA SCT025 OVC060
     FM160600 32008G15KT P6SM SCT030 BKN050=

USA.gov is the U.S. government's official web portal to all federal, state and local government web resources and services.